Flag for Germany Weather past 2 weeks in Düren, North Rhine-Westphalia, Germany

Now
36 °F

Light rain. Overcast.


Feels Like: 33 °F
Forecast: 38 / 45 °F
Wind: 3 mph from Southwest

Location: Noervenich

Current Time: Jan 25, 2015 at 11:52:55 PM

Latest Report: Jan 25, 2015 at 10:20 PM


Visibility: 4 mi

Pressure: 30.36 "Hg

Humidity: 93%

Dew point: 34 °F

Location of DürenLocation

Historic Weather in Düren — Graph

°F

Düren temperature yesterday

Maximum temperature yesterday: 37 °F (at 5:20 PM)
Minimum temperature yesterday: 25 °F (at 3:20 AM)
Average temperature yesterday: 32 °F

Past Weeks' High & Low Weather Summary

 TemperatureHumidityPressure
High55 °F (Jan 13, 1:20 PM)100% (Jan 17, 6:20 AM)30.42 "Hg (Jan 17, 6:20 AM)
Low25 °F (Jan 24, 3:20 AM)55% (Jan 13, 1:20 PM)29.47 "Hg (Jan 15, 3:20 PM)
Average38 °F81%29.95 "Hg
* Reported Jan 10 10:20 PM — Jan 25 10:20 PM, Düren, Weather by CustomWeather, © 2014

Note: Actual official high and low records may vary slightly from our data, if they occured in-between our weather recording intervals... More about our weather records

Advertising

Düren weather history for previous 24 hours

 ConditionsComfort  
Time TempWeatherWind HumidityBarometerVisibility
10:20 PM
Jan 25
36 °FLight rain. Overcast.3 mph93%30.36 "Hg4 mi
9:20 PM36 °FLight rain. Fog.3 mph93%30.36 "Hg3 mi
8:20 PM37 °FLight rain. Fog.5 mph93%30.36 "Hg3 mi
7:20 PM36 °FDrizzle. Fog.5 mph100%30.39 "Hg2 mi
6:20 PM37 °FDrizzle. Fog.3 mph93%30.39 "Hg2 mi
5:20 PM37 °FLight rain. Fog.5 mph93%30.39 "Hg2 mi
4:20 PM37 °FLight rain. Fog.6 mph93%30.39 "Hg2 mi
3:20 PM37 °FLight rain. Fog.7 mph93%30.39 "Hg2 mi
2:20 PM37 °FFog.3 mph87%30.36 "Hg3 mi
1:20 PM37 °FFog.5 mph87%30.39 "Hg3 mi
12:20 PM36 °FFog.7 mph93%30.39 "Hg3 mi
11:20 AM36 °FChilly.6 mph93%30.42 "Hg3 mi
10:20 AM36 °FChilly.6 mph93%30.42 "Hg3 mi
9:20 AM34 °FChilly.5 mph93%30.42 "Hg3 mi
8:20 AM34 °FChilly.6 mph93%30.39 "Hg3 mi
7:20 AM34 °FChilly.6 mph93%30.39 "Hg3 mi
6:20 AM32 °FChilly.3 mph93%30.39 "Hg3 mi
5:20 AM30 °FPassing clouds.6 mph100%30.36 "HgN/A
4:20 AM30 °FPassing clouds.6 mph93%30.36 "HgN/A
3:20 AM30 °FPassing clouds.7 mph93%30.36 "HgN/A
2:20 AM30 °FPassing clouds.7 mph93%30.33 "HgN/A
1:20 AM32 °FPassing clouds.8 mph93%30.33 "HgN/A
12:20 AM32 °FPassing clouds.7 mph93%30.33 "HgN/A
11:20 PM
Jan 24
34 °FPassing clouds.7 mph93%30.33 "HgN/A
Weather by CustomWeather, © 2014

See weather overviewHow to use our weather pages